owner,sensor,date,latitude,longitude,sea_surface_height_above_sea_level,qcFlag 
COMPS,ioos:station:USF.COMPS:BGC:1,2013-02-01T00:00:00Z,26.4040,-81.8810,-0.322,1111122 
COMPS,ioos:station:USF.COMPS:BGC:1,2013-02-01T00:06:00Z,26.4040,-81.8810,-0.332,1111122 
COMPS,ioos:station:USF.COMPS:BGC:1,2013-02-01T00:12:00Z,26.4040,-81.8810,-0.342,1111122 
COMPS,ioos:station:USF.COMPS:BGC:1,2013-02-01T00:18:00Z,26.4040,-81.8810,-0.354,1111122 
COMPS,ioos:station:USF.COMPS:BGC:1,2013-02-01T00:24:00Z,26.4040,-81.8810,-0.355,1111122 
COMPS,ioos:station:USF.COMPS:BGC:1,2013-02-01T00:30:00Z,26.4040,-81.8810,-0.377,1111122 
COMPS,ioos:station:USF.COMPS:BGC:1,2013-02-01T00:36:00Z,26.4040,-81.8810,-0.385,1111122 
COMPS,ioos:station:USF.COMPS:BGC:1,2013-02-01T00:42:00Z,26.4040,-81.8810,-0.399,1111122 
COMPS,ioos:station:USF.COMPS:BGC:1,2013-02-01T00:48:00Z,26.4040,-81.8810,-0.4,1111122 
COMPS,ioos:station:USF.COMPS:BGC:1,2013-02-01T00:54:00Z,26.4040,-81.8810,-0.418,1111122 
COMPS,ioos:station:USF.COMPS:BGC:1,2013-02-01T01:00:00Z,26.4040,-81.8810,-0.436,1111122 
COMPS,ioos:station:USF.COMPS:BGC:1,2013-02-01T01:06:00Z,26.4040,-81.8810,-0.438,1111122 
COMPS,ioos:station:USF.COMPS:BGC:1,2013-02-01T01:12:00Z,26.4040,-81.8810,-0.449,1111122 
COMPS,ioos:station:USF.COMPS:BGC:1,2013-02-01T01:18:00Z,26.4040,-81.8810,-0.459,1111122 
COMPS,ioos:station:USF.COMPS:BGC:1,2013-02-01T01:24:00Z,26.4040,-81.8810,-0.468,1111122 
COMPS,ioos:station:USF.COMPS:BGC:1,2013-02-01T01:30:00Z,26.4040,-81.8810,-0.474,1111122 
COMPS,ioos:station:USF.COMPS:BGC:1,2013-02-01T01:36:00Z,26.4040,-81.8810,-0.476,1111122 
COMPS,ioos:station:USF.COMPS:BGC:1,2013-02-01T01:42:00Z,26.4040,-81.8810,-0.487,1111122 
COMPS,ioos:station:USF.COMPS:BGC:1,2013-02-01T01:48:00Z,26.4040,-81.8810,-0.5,1111122 
COMPS,ioos:station:USF.COMPS:BGC:1,2013-02-01T01:54:00Z,26.4040,-81.8810,-0.492,1111122 
COMPS,ioos:station:USF.COMPS:BGC:1,2013-02-01T02:00:00Z,26.4040,-81.8810,-0.507,1111122 
COMPS,ioos:station:USF.COMPS:BGC:1,2013-02-01T02:06:00Z,26.4040,-81.8810,-0.524,1111122 
COMPS,ioos:station:USF.COMPS:BGC:1,2013-02-01T02:12:00Z,26.4040,-81.8810,-0.529,1111122 
COMPS,ioos:station:USF.COMPS:BGC:1,2013-02-01T02:18:00Z,26.4040,-81.8810,-0.524,1111122 
COMPS,ioos:station:USF.COMPS:BGC:1,2013-02-01T02:24:00Z,26.4040,-81.8810,-0.513,1111122 
COMPS,ioos:station:USF.COMPS:BGC:1,2013-02-01T02:30:00Z,26.4040,-81.8810,-0.509,1111122 
COMPS,ioos:station:USF.COMPS:BGC:1,2013-02-01T02:36:00Z,26.4040,-81.8810,-0.522,1111122 
COMPS,ioos:station:USF.COMPS:BGC:1,2013-02-01T02:42:00Z,26.4040,-81.8810,-0.503,1111122 
COMPS,ioos:station:USF.COMPS:BGC:1,2013-02-01T02:48:00Z,26.4040,-81.8810,-0.509,1111122 
COMPS,ioos:station:USF.COMPS:BGC:1,2013-02-01T02:54:00Z,26.4040,-81.8810,-0.51,1111122 
COMPS,ioos:station:USF.COMPS:BGC:1,2013-02-01T03:00:00Z,26.4040,-81.8810,-0.511,1111122 
COMPS,ioos:station:USF.COMPS:BGC:1,2013-02-01T03:06:00Z,26.4040,-81.8810,-0.497,1111122 
COMPS,ioos:station:USF.COMPS:BGC:1,2013-02-01T03:12:00Z,26.4040,-81.8810,-0.496,1111122 
COMPS,ioos:station:USF.COMPS:BGC:1,2013-02-01T03:18:00Z,26.4040,-81.8810,-0.499,1111122 
COMPS,ioos:station:USF.COMPS:BGC:1,2013-02-01T03:24:00Z,26.4040,-81.8810,-0.483,1111122 
COMPS,ioos:station:USF.COMPS:BGC:1,2013-02-01T03:30:00Z,26.4040,-81.8810,-0.477,1111122 
COMPS,ioos:station:USF.COMPS:BGC:1,2013-02-01T03:36:00Z,26.4040,-81.8810,-0.491,1111122 
COMPS,ioos:station:USF.COMPS:BGC:1,2013-02-01T03:42:00Z,26.4040,-81.8810,-0.476,1111122 
COMPS,ioos:station:USF.COMPS:BGC:1,2013-02-01T03:48:00Z,26.4040,-81.8810,-0.462,1111122 
COMPS,ioos:station:USF.COMPS:BGC:1,2013-02-01T03:54:00Z,26.4040,-81.8810,-0.451,1111122 
COMPS,ioos:station:USF.COMPS:BGC:1,2013-02-01T04:00:00Z,26.4040,-81.8810,-0.465,1111122 
COMPS,ioos:station:USF.COMPS:BGC:1,2013-02-01T04:06:00Z,26.4040,-81.8810,-0.454,1111122 
COMPS,ioos:station:USF.COMPS:BGC:1,2013-02-01T04:12:00Z,26.4040,-81.8810,-0.441,1111122 
COMPS,ioos:station:USF.COMPS:BGC:1,2013-02-01T04:18:00Z,26.4040,-81.8810,-0.436,1111122 
COMPS,ioos:station:USF.COMPS:BGC:1,2013-02-01T04:24:00Z,26.4040,-81.8810,-0.429,1111122 
COMPS,ioos:station:USF.COMPS:BGC:1,2013-02-01T04:30:00Z,26.4040,-81.8810,-0.428,1111122 
COMPS,ioos:station:USF.COMPS:BGC:1,2013-02-01T04:36:00Z,26.4040,-81.8810,-0.414,1111122 
COMPS,ioos:station:USF.COMPS:BGC:1,2013-02-01T04:42:00Z,26.4040,-81.8810,-0.404,1111122 
COMPS,ioos:station:USF.COMPS:BGC:1,2013-02-01T04:48:00Z,26.4040,-81.8810,-0.402,1111122 
COMPS,ioos:station:USF.COMPS:BGC:1,2013-02-01T04:54:00Z,26.4040,-81.8810,-0.386,1111122 
COMPS,ioos:station:USF.COMPS:BGC:1,2013-02-01T05:00:00Z,26.4040,-81.8810,-0.365,1111122 
COMPS,ioos:station:USF.COMPS:BGC:1,2013-02-01T05:06:00Z,26.4040,-81.8810,-0.37,1111122 
COMPS,ioos:station:USF.COMPS:BGC:1,2013-02-01T05:12:00Z,26.4040,-81.8810,-0.361,1111122 
COMPS,ioos:station:USF.COMPS:BGC:1,2013-02-01T05:18:00Z,26.4040,-81.8810,-0.354,1111122 
COMPS,ioos:station:USF.COMPS:BGC:1,2013-02-01T05:24:00Z,26.4040,-81.8810,-0.343,1111122 
COMPS,ioos:station:USF.COMPS:BGC:1,2013-02-01T05:30:00Z,26.4040,-81.8810,-0.338,1111122 
COMPS,ioos:station:USF.COMPS:BGC:1,2013-02-01T05:36:00Z,26.4040,-81.8810,-0.319,1111122 
COMPS,ioos:station:USF.COMPS:BGC:1,2013-02-01T05:42:00Z,26.4040,-81.8810,-0.307,1111122 
COMPS,ioos:station:USF.COMPS:BGC:1,2013-02-01T05:48:00Z,26.4040,-81.8810,-0.301,1111122 
COMPS,ioos:station:USF.COMPS:BGC:1,2013-02-01T05:54:00Z,26.4040,-81.8810,-0.289,1111122 
COMPS,ioos:station:USF.COMPS:BGC:1,2013-02-01T06:00:00Z,26.4040,-81.8810,-0.278,1111122 
COMPS,ioos:station:USF.COMPS:BGC:1,2013-02-01T06:06:00Z,26.4040,-81.8810,-0.282,1111122 
COMPS,ioos:station:USF.COMPS:BGC:1,2013-02-01T06:12:00Z,26.4040,-81.8810,-0.272,1111122 
COMPS,ioos:station:USF.COMPS:BGC:1,2013-02-01T06:18:00Z,26.4040,-81.8810,-0.258,1111122 
COMPS,ioos:station:USF.COMPS:BGC:1,2013-02-01T06:24:00Z,26.4040,-81.8810,-0.255,1111122 
COMPS,ioos:station:USF.COMPS:BGC:1,2013-02-01T06:30:00Z,26.4040,-81.8810,-0.258,1111122 
COMPS,ioos:station:USF.COMPS:BGC:1,2013-02-01T06:36:00Z,26.4040,-81.8810,-0.228,1111122 
COMPS,ioos:station:USF.COMPS:BGC:1,2013-02-01T06:42:00Z,26.4040,-81.8810,-0.218,1111122 
COMPS,ioos:station:USF.COMPS:BGC:1,2013-02-01T06:48:00Z,26.4040,-81.8810,-0.219,1111122 
COMPS,ioos:station:USF.COMPS:BGC:1,2013-02-01T06:54:00Z,26.4040,-81.8810,-0.2,1111122 
COMPS,ioos:station:USF.COMPS:BGC:1,2013-02-01T07:00:00Z,26.4040,-81.8810,-0.186,1111122 
COMPS,ioos:station:USF.COMPS:BGC:1,2013-02-01T07:06:00Z,26.4040,-81.8810,-0.193,1111122 
COMPS,ioos:station:USF.COMPS:BGC:1,2013-02-01T07:12:00Z,26.4040,-81.8810,-0.198,1111122 
COMPS,ioos:station:USF.COMPS:BGC:1,2013-02-01T07:18:00Z,26.4040,-81.8810,-0.171,1111122 
COMPS,ioos:station:USF.COMPS:BGC:1,2013-02-01T07:24:00Z,26.4040,-81.8810,-0.18,1111122 
COMPS,ioos:station:USF.COMPS:BGC:1,2013-02-01T07:30:00Z,26.4040,-81.8810,-0.162,1111122 
COMPS,ioos:station:USF.COMPS:BGC:1,2013-02-01T07:36:00Z,26.4040,-81.8810,-0.166,1111122 
COMPS,ioos:station:USF.COMPS:BGC:1,2013-02-01T07:42:00Z,26.4040,-81.8810,-0.149,1111122 
COMPS,ioos:station:USF.COMPS:BGC:1,2013-02-01T07:48:00Z,26.4040,-81.8810,-0.15,1111122 
COMPS,ioos:station:USF.COMPS:BGC:1,2013-02-01T07:54:00Z,26.4040,-81.8810,-0.141,1111122 
COMPS,ioos:station:USF.COMPS:BGC:1,2013-02-01T08:00:00Z,26.4040,-81.8810,-0.144,1111122 
COMPS,ioos:station:USF.COMPS:BGC:1,2013-02-01T08:06:00Z,26.4040,-81.8810,-0.145,1111122 
COMPS,ioos:station:USF.COMPS:BGC:1,2013-02-01T08:12:00Z,26.4040,-81.8810,-0.135,1111122 
COMPS,ioos:station:USF.COMPS:BGC:1,2013-02-01T08:18:00Z,26.4040,-81.8810,-0.132,1111122 
COMPS,ioos:station:USF.COMPS:BGC:1,2013-02-01T08:24:00Z,26.4040,-81.8810,-0.125,1111122 
COMPS,ioos:station:USF.COMPS:BGC:1,2013-02-01T08:30:00Z,26.4040,-81.8810,-0.132,1111122 
COMPS,ioos:station:USF.COMPS:BGC:1,2013-02-01T08:36:00Z,26.4040,-81.8810,-0.133,1111122 
COMPS,ioos:station:USF.COMPS:BGC:1,2013-02-01T08:42:00Z,26.4040,-81.8810,-0.135,1111122 
COMPS,ioos:station:USF.COMPS:BGC:1,2013-02-01T08:48:00Z,26.4040,-81.8810,-0.127,1111122 
COMPS,ioos:station:USF.COMPS:BGC:1,2013-02-01T08:54:00Z,26.4040,-81.8810,-0.129,1111122 
COMPS,ioos:station:USF.COMPS:BGC:1,2013-02-01T09:00:00Z,26.4040,-81.8810,-0.137,1111122 
COMPS,ioos:station:USF.COMPS:BGC:1,2013-02-01T09:06:00Z,26.4040,-81.8810,-0.15,1111122 
COMPS,ioos:station:USF.COMPS:BGC:1,2013-02-01T09:12:00Z,26.4040,-81.8810,-0.149,1111122 
COMPS,ioos:station:USF.COMPS:BGC:1,2013-02-01T09:18:00Z,26.4040,-81.8810,-0.145,1111122 
COMPS,ioos:station:USF.COMPS:BGC:1,2013-02-01T09:24:00Z,26.4040,-81.8810,-0.176,1111122 
COMPS,ioos:station:USF.COMPS:BGC:1,2013-02-01T09:30:00Z,26.4040,-81.8810,-0.163,1111122 
COMPS,ioos:station:USF.COMPS:BGC:1,2013-02-01T09:36:00Z,26.4040,-81.8810,-0.167,1111122 
COMPS,ioos:station:USF.COMPS:BGC:1,2013-02-01T09:42:00Z,26.4040,-81.8810,-0.188,1111122 
COMPS,ioos:station:USF.COMPS:BGC:1,2013-02-01T09:48:00Z,26.4040,-81.8810,-0.204,1111122 
COMPS,ioos:station:USF.COMPS:BGC:1,2013-02-01T09:54:00Z,26.4040,-81.8810,-0.201,1111122 
COMPS,ioos:station:USF.COMPS:BGC:1,2013-02-01T10:00:00Z,26.4040,-81.8810,-0.2,1111122 
COMPS,ioos:station:USF.COMPS:BGC:1,2013-02-01T10:06:00Z,26.4040,-81.8810,-0.225,1111122 
COMPS,ioos:station:USF.COMPS:BGC:1,2013-02-01T10:12:00Z,26.4040,-81.8810,-0.237,1111122 
COMPS,ioos:station:USF.COMPS:BGC:1,2013-02-01T10:18:00Z,26.4040,-81.8810,-0.227,1111122 
COMPS,ioos:station:USF.COMPS:BGC:1,2013-02-01T10:24:00Z,26.4040,-81.8810,-0.252,1111122 
COMPS,ioos:station:USF.COMPS:BGC:1,2013-02-01T10:30:00Z,26.4040,-81.8810,-0.256,1111122 
COMPS,ioos:station:USF.COMPS:BGC:1,2013-02-01T10:36:00Z,26.4040,-81.8810,-0.28,1111122 
COMPS,ioos:station:USF.COMPS:BGC:1,2013-02-01T10:42:00Z,26.4040,-81.8810,-0.289,1111122 
COMPS,ioos:station:USF.COMPS:BGC:1,2013-02-01T10:48:00Z,26.4040,-81.8810,-0.292,1111122 
COMPS,ioos:station:USF.COMPS:BGC:1,2013-02-01T10:54:00Z,26.4040,-81.8810,-0.3,1111122 
COMPS,ioos:station:USF.COMPS:BGC:1,2013-02-01T11:00:00Z,26.4040,-81.8810,-0.315,1111122 
COMPS,ioos:station:USF.COMPS:BGC:1,2013-02-01T11:06:00Z,26.4040,-81.8810,-0.329,1111122 
COMPS,ioos:station:USF.COMPS:BGC:1,2013-02-01T11:12:00Z,26.4040,-81.8810,-0.33,1111122 
COMPS,ioos:station:USF.COMPS:BGC:1,2013-02-01T11:18:00Z,26.4040,-81.8810,-0.352,1111122 
COMPS,ioos:station:USF.COMPS:BGC:1,2013-02-01T11:24:00Z,26.4040,-81.8810,-0.375,1111122 
COMPS,ioos:station:USF.COMPS:BGC:1,2013-02-01T11:30:00Z,26.4040,-81.8810,-0.366,1111122 
COMPS,ioos:station:USF.COMPS:BGC:1,2013-02-01T11:36:00Z,26.4040,-81.8810,-0.379,1111122 
COMPS,ioos:station:USF.COMPS:BGC:1,2013-02-01T11:42:00Z,26.4040,-81.8810,-0.391,1111122 
COMPS,ioos:station:USF.COMPS:BGC:1,2013-02-01T11:48:00Z,26.4040,-81.8810,-0.402,1111122 
COMPS,ioos:station:USF.COMPS:BGC:1,2013-02-01T11:54:00Z,26.4040,-81.8810,-0.409,1111122 
COMPS,ioos:station:USF.COMPS:BGC:1,2013-02-01T12:00:00Z,26.4040,-81.8810,-0.414,1111122 
COMPS,ioos:station:USF.COMPS:BGC:1,2013-02-01T12:06:00Z,26.4040,-81.8810,-0.423,1111122 
COMPS,ioos:station:USF.COMPS:BGC:1,2013-02-01T12:12:00Z,26.4040,-81.8810,-0.435,1111122 
COMPS,ioos:station:USF.COMPS:BGC:1,2013-02-01T12:18:00Z,26.4040,-81.8810,-0.443,1111122 
COMPS,ioos:station:USF.COMPS:BGC:1,2013-02-01T12:24:00Z,26.4040,-81.8810,-0.464,1111122 
COMPS,ioos:station:USF.COMPS:BGC:1,2013-02-01T12:30:00Z,26.4040,-81.8810,-0.467,1111122 
COMPS,ioos:station:USF.COMPS:BGC:1,2013-02-01T12:36:00Z,26.4040,-81.8810,-0.477,1111122 
COMPS,ioos:station:USF.COMPS:BGC:1,2013-02-01T12:42:00Z,26.4040,-81.8810,-0.486,1111122 
COMPS,ioos:station:USF.COMPS:BGC:1,2013-02-01T12:48:00Z,26.4040,-81.8810,-0.495,1111122 
COMPS,ioos:station:USF.COMPS:BGC:1,2013-02-01T12:54:00Z,26.4040,-81.8810,-0.508,1111122 
COMPS,ioos:station:USF.COMPS:BGC:1,2013-02-01T13:00:00Z,26.4040,-81.8810,-0.501,1111122 
COMPS,ioos:station:USF.COMPS:BGC:1,2013-02-01T13:06:00Z,26.4040,-81.8810,-0.515,1111122 
COMPS,ioos:station:USF.COMPS:BGC:1,2013-02-01T13:12:00Z,26.4040,-81.8810,-0.529,1111122 
COMPS,ioos:station:USF.COMPS:BGC:1,2013-02-01T13:18:00Z,26.4040,-81.8810,-0.538,1111122 
COMPS,ioos:station:USF.COMPS:BGC:1,2013-02-01T13:24:00Z,26.4040,-81.8810,-0.542,1111122 
COMPS,ioos:station:USF.COMPS:BGC:1,2013-02-01T13:30:00Z,26.4040,-81.8810,-0.56,1111122 
COMPS,ioos:station:USF.COMPS:BGC:1,2013-02-01T13:36:00Z,26.4040,-81.8810,-0.566,1111122 
COMPS,ioos:station:USF.COMPS:BGC:1,2013-02-01T13:42:00Z,26.4040,-81.8810,-0.577,1111122 
COMPS,ioos:station:USF.COMPS:BGC:1,2013-02-01T13:48:00Z,26.4040,-81.8810,-0.588,1111122 
COMPS,ioos:station:USF.COMPS:BGC:1,2013-02-01T13:54:00Z,26.4040,-81.8810,-0.599,1111122 
COMPS,ioos:station:USF.COMPS:BGC:1,2013-02-01T14:00:00Z,26.4040,-81.8810,-0.601,1111122 
COMPS,ioos:station:USF.COMPS:BGC:1,2013-02-01T14:06:00Z,26.4040,-81.8810,-0.598,1111122 
COMPS,ioos:station:USF.COMPS:BGC:1,2013-02-01T14:12:00Z,26.4040,-81.8810,-0.595,1111122 
COMPS,ioos:station:USF.COMPS:BGC:1,2013-02-01T14:18:00Z,26.4040,-81.8810,-0.618,1111122 
COMPS,ioos:station:USF.COMPS:BGC:1,2013-02-01T14:24:00Z,26.4040,-81.8810,-0.629,1111122 
COMPS,ioos:station:USF.COMPS:BGC:1,2013-02-01T14:30:00Z,26.4040,-81.8810,-0.629,1111122 
COMPS,ioos:station:USF.COMPS:BGC:1,2013-02-01T14:36:00Z,26.4040,-81.8810,-0.635,1111122 
COMPS,ioos:station:USF.COMPS:BGC:1,2013-02-01T14:42:00Z,26.4040,-81.8810,-0.643,1111122 
COMPS,ioos:station:USF.COMPS:BGC:1,2013-02-01T14:48:00Z,26.4040,-81.8810,-0.652,1111122 
COMPS,ioos:station:USF.COMPS:BGC:1,2013-02-01T14:54:00Z,26.4040,-81.8810,-0.66,1111122 
COMPS,ioos:station:USF.COMPS:BGC:1,2013-02-01T15:00:00Z,26.4040,-81.8810,-0.663,1111122 
COMPS,ioos:station:USF.COMPS:BGC:1,2013-02-01T15:06:00Z,26.4040,-81.8810,-0.658,1111122 
COMPS,ioos:station:USF.COMPS:BGC:1,2013-02-01T15:12:00Z,26.4040,-81.8810,-0.642,1111122 
COMPS,ioos:station:USF.COMPS:BGC:1,2013-02-01T15:18:00Z,26.4040,-81.8810,-0.632,1111122 
COMPS,ioos:station:USF.COMPS:BGC:1,2013-02-01T15:24:00Z,26.4040,-81.8810,-0.632,1111122 
COMPS,ioos:station:USF.COMPS:BGC:1,2013-02-01T15:30:00Z,26.4040,-81.8810,-0.618,1111122 
COMPS,ioos:station:USF.COMPS:BGC:1,2013-02-01T15:36:00Z,26.4040,-81.8810,-0.614,1111122 
COMPS,ioos:station:USF.COMPS:BGC:1,2013-02-01T15:42:00Z,26.4040,-81.8810,-0.622,1111122 
COMPS,ioos:station:USF.COMPS:BGC:1,2013-02-01T15:48:00Z,26.4040,-81.8810,-0.608,1111122 
COMPS,ioos:station:USF.COMPS:BGC:1,2013-02-01T15:54:00Z,26.4040,-81.8810,-0.604,1111122 
COMPS,ioos:station:USF.COMPS:BGC:1,2013-02-01T16:00:00Z,26.4040,-81.8810,-0.585,1111122 
COMPS,ioos:station:USF.COMPS:BGC:1,2013-02-01T16:06:00Z,26.4040,-81.8810,-0.577,1111122 
COMPS,ioos:station:USF.COMPS:BGC:1,2013-02-01T16:12:00Z,26.4040,-81.8810,-0.559,1111122 
COMPS,ioos:station:USF.COMPS:BGC:1,2013-02-01T16:18:00Z,26.4040,-81.8810,-0.548,1111122 
COMPS,ioos:station:USF.COMPS:BGC:1,2013-02-01T16:24:00Z,26.4040,-81.8810,-0.54,1111122 
COMPS,ioos:station:USF.COMPS:BGC:1,2013-02-01T16:30:00Z,26.4040,-81.8810,-0.529,1111122 
COMPS,ioos:station:USF.COMPS:BGC:1,2013-02-01T16:36:00Z,26.4040,-81.8810,-0.522,1111122 
COMPS,ioos:station:USF.COMPS:BGC:1,2013-02-01T16:42:00Z,26.4040,-81.8810,-0.509,1111122 
COMPS,ioos:station:USF.COMPS:BGC:1,2013-02-01T16:48:00Z,26.4040,-81.8810,-0.506,1111122 
COMPS,ioos:station:USF.COMPS:BGC:1,2013-02-01T16:54:00Z,26.4040,-81.8810,-0.493,1111122 
COMPS,ioos:station:USF.COMPS:BGC:1,2013-02-01T17:00:00Z,26.4040,-81.8810,-0.486,1111122 
COMPS,ioos:station:USF.COMPS:BGC:1,2013-02-01T17:06:00Z,26.4040,-81.8810,-0.467,1111122 
COMPS,ioos:station:USF.COMPS:BGC:1,2013-02-01T17:12:00Z,26.4040,-81.8810,-0.452,1111122 
COMPS,ioos:station:USF.COMPS:BGC:1,2013-02-01T17:18:00Z,26.4040,-81.8810,-0.424,1111122 
COMPS,ioos:station:USF.COMPS:BGC:1,2013-02-01T17:24:00Z,26.4040,-81.8810,-0.408,1111122 
COMPS,ioos:station:USF.COMPS:BGC:1,2013-02-01T17:30:00Z,26.4040,-81.8810,-0.399,1111122 
COMPS,ioos:station:USF.COMPS:BGC:1,2013-02-01T17:36:00Z,26.4040,-81.8810,-0.385,1111122 
COMPS,ioos:station:USF.COMPS:BGC:1,2013-02-01T17:42:00Z,26.4040,-81.8810,-0.376,1111122 
COMPS,ioos:station:USF.COMPS:BGC:1,2013-02-01T17:48:00Z,26.4040,-81.8810,-0.365,1111122 
COMPS,ioos:station:USF.COMPS:BGC:1,2013-02-01T17:54:00Z,26.4040,-81.8810,-0.35,1111122 
COMPS,ioos:station:USF.COMPS:BGC:1,2013-02-01T18:00:00Z,26.4040,-81.8810,-0.328,1111122 
COMPS,ioos:station:USF.COMPS:BGC:1,2013-02-01T18:06:00Z,26.4040,-81.8810,-0.308,1111122 
COMPS,ioos:station:USF.COMPS:BGC:1,2013-02-01T18:12:00Z,26.4040,-81.8810,-0.294,1111122 
COMPS,ioos:station:USF.COMPS:BGC:1,2013-02-01T18:18:00Z,26.4040,-81.8810,-0.283,1111122 
COMPS,ioos:station:USF.COMPS:BGC:1,2013-02-01T18:24:00Z,26.4040,-81.8810,-0.27,1111122 
COMPS,ioos:station:USF.COMPS:BGC:1,2013-02-01T18:30:00Z,26.4040,-81.8810,-0.265,1111122 
COMPS,ioos:station:USF.COMPS:BGC:1,2013-02-01T18:36:00Z,26.4040,-81.8810,-0.253,1111122 
COMPS,ioos:station:USF.COMPS:BGC:1,2013-02-01T18:42:00Z,26.4040,-81.8810,-0.235,1111122 
COMPS,ioos:station:USF.COMPS:BGC:1,2013-02-01T18:48:00Z,26.4040,-81.8810,-0.229,1111122 
COMPS,ioos:station:USF.COMPS:BGC:1,2013-02-01T18:54:00Z,26.4040,-81.8810,-0.209,1111122 
COMPS,ioos:station:USF.COMPS:BGC:1,2013-02-01T19:00:00Z,26.4040,-81.8810,-0.196,1111122 
COMPS,ioos:station:USF.COMPS:BGC:1,2013-02-01T19:06:00Z,26.4040,-81.8810,-0.184,1111122 
COMPS,ioos:station:USF.COMPS:BGC:1,2013-02-01T19:12:00Z,26.4040,-81.8810,-0.162,1111122 
COMPS,ioos:station:USF.COMPS:BGC:1,2013-02-01T19:18:00Z,26.4040,-81.8810,-0.154,1111122 
COMPS,ioos:station:USF.COMPS:BGC:1,2013-02-01T19:24:00Z,26.4040,-81.8810,-0.152,1111122 
COMPS,ioos:station:USF.COMPS:BGC:1,2013-02-01T19:30:00Z,26.4040,-81.8810,-0.135,1111122 
COMPS,ioos:station:USF.COMPS:BGC:1,2013-02-01T19:36:00Z,26.4040,-81.8810,-0.12,1111122 
COMPS,ioos:station:USF.COMPS:BGC:1,2013-02-01T19:42:00Z,26.4040,-81.8810,-0.115,1111122 
COMPS,ioos:station:USF.COMPS:BGC:1,2013-02-01T19:48:00Z,26.4040,-81.8810,-0.098,1111122 
COMPS,ioos:station:USF.COMPS:BGC:1,2013-02-01T19:54:00Z,26.4040,-81.8810,-0.091,1111122 
COMPS,ioos:station:USF.COMPS:BGC:1,2013-02-01T21:00:00Z,26.4040,-81.8810,-0.001,1111122 
COMPS,ioos:station:USF.COMPS:BGC:1,2013-02-01T21:06:00Z,26.4040,-81.8810,-0.007,1111122 
COMPS,ioos:station:USF.COMPS:BGC:1,2013-02-01T21:12:00Z,26.4040,-81.8810,0.0,1114422 
COMPS,ioos:station:USF.COMPS:BGC:1,2013-02-01T21:18:00Z,26.4040,-81.8810,0.0,1114422 
COMPS,ioos:station:USF.COMPS:BGC:1,2013-02-01T21:24:00Z,26.4040,-81.8810,0.016,1111122 
COMPS,ioos:station:USF.COMPS:BGC:1,2013-02-01T21:30:00Z,26.4040,-81.8810,0.012,1111122 
COMPS,ioos:station:USF.COMPS:BGC:1,2013-02-01T21:36:00Z,26.4040,-81.8810,0.008,1111122 
COMPS,ioos:station:USF.COMPS:BGC:1,2013-02-01T21:42:00Z,26.4040,-81.8810,0.001,1111122 
COMPS,ioos:station:USF.COMPS:BGC:1,2013-02-01T21:48:00Z,26.4040,-81.8810,0.009,1111122 
COMPS,ioos:station:USF.COMPS:BGC:1,2013-02-01T21:54:00Z,26.4040,-81.8810,-0.014,1111122 
COMPS,ioos:station:USF.COMPS:BGC:1,2013-02-01T22:00:00Z,26.4040,-81.8810,0.0,1114422 
COMPS,ioos:station:USF.COMPS:BGC:1,2013-02-01T22:06:00Z,26.4040,-81.8810,-0.015,1111122 
COMPS,ioos:station:USF.COMPS:BGC:1,2013-02-01T22:12:00Z,26.4040,-81.8810,-0.023,1111122 
COMPS,ioos:station:USF.COMPS:BGC:1,2013-02-01T22:18:00Z,26.4040,-81.8810,-0.041,1111122 
COMPS,ioos:station:USF.COMPS:BGC:1,2013-02-01T22:24:00Z,26.4040,-81.8810,-0.03,1111122 
COMPS,ioos:station:USF.COMPS:BGC:1,2013-02-01T22:30:00Z,26.4040,-81.8810,-0.049,1111122 
COMPS,ioos:station:USF.COMPS:BGC:1,2013-02-01T22:36:00Z,26.4040,-81.8810,-0.073,1111122 
COMPS,ioos:station:USF.COMPS:BGC:1,2013-02-01T22:42:00Z,26.4040,-81.8810,-0.068,1111122 
COMPS,ioos:station:USF.COMPS:BGC:1,2013-02-01T22:48:00Z,26.4040,-81.8810,-0.08,1111122 
COMPS,ioos:station:USF.COMPS:BGC:1,2013-02-01T22:54:00Z,26.4040,-81.8810,-0.096,1111122 
COMPS,ioos:station:USF.COMPS:BGC:1,2013-02-01T23:00:00Z,26.4040,-81.8810,-0.109,1111122 
COMPS,ioos:station:USF.COMPS:BGC:1,2013-02-01T23:06:00Z,26.4040,-81.8810,-0.103,1111122 
COMPS,ioos:station:USF.COMPS:BGC:1,2013-02-01T23:12:00Z,26.4040,-81.8810,-0.125,1111122 
COMPS,ioos:station:USF.COMPS:BGC:1,2013-02-01T23:18:00Z,26.4040,-81.8810,-0.149,1111122 
COMPS,ioos:station:USF.COMPS:BGC:1,2013-02-01T23:24:00Z,26.4040,-81.8810,-0.146,1111122 
COMPS,ioos:station:USF.COMPS:BGC:1,2013-02-01T23:30:00Z,26.4040,-81.8810,-0.161,1111122 
COMPS,ioos:station:USF.COMPS:BGC:1,2013-02-01T23:36:00Z,26.4040,-81.8810,-0.189,1111122 
COMPS,ioos:station:USF.COMPS:BGC:1,2013-02-01T23:42:00Z,26.4040,-81.8810,-0.182,1111122 
COMPS,ioos:station:USF.COMPS:BGC:1,2013-02-01T23:48:00Z,26.4040,-81.8810,-0.189,1111122 
COMPS,ioos:station:USF.COMPS:BGC:1,2013-02-01T23:54:00Z,26.4040,-81.8810,-0.215,1111122 
COMPS,ioos:station:USF.COMPS:BGC:1,2013-02-02T00:00:00Z,26.4040,-81.8810,-0.218,1111122 
COMPS,ioos:station:USF.COMPS:BGC:1,2013-02-02T00:06:00Z,26.4040,-81.8810,-0.234,1111122 
COMPS,ioos:station:USF.COMPS:BGC:1,2013-02-02T00:12:00Z,26.4040,-81.8810,-0.252,1111122 
COMPS,ioos:station:USF.COMPS:BGC:1,2013-02-02T00:18:00Z,26.4040,-81.8810,-0.271,1111122 
COMPS,ioos:station:USF.COMPS:BGC:1,2013-02-02T00:24:00Z,26.4040,-81.8810,-0.276,1111122 
COMPS,ioos:station:USF.COMPS:BGC:1,2013-02-02T00:30:00Z,26.4040,-81.8810,-0.29,1111122 
COMPS,ioos:station:USF.COMPS:BGC:1,2013-02-02T00:36:00Z,26.4040,-81.8810,-0.31,1111122 
COMPS,ioos:station:USF.COMPS:BGC:1,2013-02-02T00:42:00Z,26.4040,-81.8810,-0.311,1111122 
COMPS,ioos:station:USF.COMPS:BGC:1,2013-02-02T00:48:00Z,26.4040,-81.8810,-0.335,1111122 
COMPS,ioos:station:USF.COMPS:BGC:1,2013-02-02T00:54:00Z,26.4040,-81.8810,-0.323,1111122 
COMPS,ioos:station:USF.COMPS:BGC:1,2013-02-02T01:00:00Z,26.4040,-81.8810,-0.342,1111122 
COMPS,ioos:station:USF.COMPS:BGC:1,2013-02-02T01:06:00Z,26.4040,-81.8810,-0.347,1111122 
COMPS,ioos:station:USF.COMPS:BGC:1,2013-02-02T01:12:00Z,26.4040,-81.8810,-0.359,1111122 
COMPS,ioos:station:USF.COMPS:BGC:1,2013-02-02T01:18:00Z,26.4040,-81.8810,-0.377,1111122 
COMPS,ioos:station:USF.COMPS:BGC:1,2013-02-02T01:24:00Z,26.4040,-81.8810,-0.381,1111122 
COMPS,ioos:station:USF.COMPS:BGC:1,2013-02-02T01:30:00Z,26.4040,-81.8810,-0.391,1111122 
COMPS,ioos:station:USF.COMPS:BGC:1,2013-02-02T01:36:00Z,26.4040,-81.8810,-0.402,1111122 
COMPS,ioos:station:USF.COMPS:BGC:1,2013-02-02T01:42:00Z,26.4040,-81.8810,-0.415,1111122 
COMPS,ioos:station:USF.COMPS:BGC:1,2013-02-02T01:48:00Z,26.4040,-81.8810,-0.41,1111122 
COMPS,ioos:station:USF.COMPS:BGC:1,2013-02-02T01:54:00Z,26.4040,-81.8810,-0.425,1111122 
COMPS,ioos:station:USF.COMPS:BGC:1,2013-02-02T02:00:00Z,26.4040,-81.8810,-0.442,1111122 
COMPS,ioos:station:USF.COMPS:BGC:1,2013-02-02T02:06:00Z,26.4040,-81.8810,-0.45,1111122 
COMPS,ioos:station:USF.COMPS:BGC:1,2013-02-02T02:12:00Z,26.4040,-81.8810,-0.454,1111122 
COMPS,ioos:station:USF.COMPS:BGC:1,2013-02-02T02:18:00Z,26.4040,-81.8810,-0.469,1111122 
COMPS,ioos:station:USF.COMPS:BGC:1,2013-02-02T02:24:00Z,26.4040,-81.8810,-0.471,1111122 
COMPS,ioos:station:USF.COMPS:BGC:1,2013-02-02T02:30:00Z,26.4040,-81.8810,-0.48,1111122 
COMPS,ioos:station:USF.COMPS:BGC:1,2013-02-02T02:36:00Z,26.4040,-81.8810,-0.49,1111122 
COMPS,ioos:station:USF.COMPS:BGC:1,2013-02-02T02:42:00Z,26.4040,-81.8810,-0.49,1111122 
COMPS,ioos:station:USF.COMPS:BGC:1,2013-02-02T02:48:00Z,26.4040,-81.8810,-0.501,1111122 
COMPS,ioos:station:USF.COMPS:BGC:1,2013-02-02T02:54:00Z,26.4040,-81.8810,-0.514,1111122 
COMPS,ioos:station:USF.COMPS:BGC:1,2013-02-02T03:00:00Z,26.4040,-81.8810,-0.509,1111122 
COMPS,ioos:station:USF.COMPS:BGC:1,2013-02-02T03:06:00Z,26.4040,-81.8810,-0.511,1111122 
COMPS,ioos:station:USF.COMPS:BGC:1,2013-02-02T03:12:00Z,26.4040,-81.8810,-0.524,1111122 
COMPS,ioos:station:USF.COMPS:BGC:1,2013-02-02T03:18:00Z,26.4040,-81.8810,-0.527,1111122 
COMPS,ioos:station:USF.COMPS:BGC:1,2013-02-02T03:24:00Z,26.4040,-81.8810,-0.525,1111122 
COMPS,ioos:station:USF.COMPS:BGC:1,2013-02-02T03:30:00Z,26.4040,-81.8810,-0.517,1111122 
COMPS,ioos:station:USF.COMPS:BGC:1,2013-02-02T03:36:00Z,26.4040,-81.8810,-0.525,1111122 
COMPS,ioos:station:USF.COMPS:BGC:1,2013-02-02T03:42:00Z,26.4040,-81.8810,-0.53,1111122 
COMPS,ioos:station:USF.COMPS:BGC:1,2013-02-02T03:48:00Z,26.4040,-81.8810,-0.533,1111122 